sat.trackr.live / text

‹ back to catalog

ASTROCAST-0401

NORAD 55110 · 2023-001DF

PAYLOAD ACTIVE UNKNOWN

§ Identity

Operator
Country
SWTZ
Launch date
2023-01-03
Launch site
AFETR
Launch vehicle
Mass (kg)
RCS (m²)

External: N2YO · Heavens-Above · Gunter

§ Orbital elements

Epoch: 2026-05-25T04:33:52.428096Z

Period
94.28 min
Inclination
97.5550°
Eccentricity
0.0006419
Mean motion
15.27432410 rev/d
Perigee alt
479.1 km
Apogee alt
487.9 km
Semi-major
6,861.6 km
B*
4.2312e-4
RAAN
237.9137°
Arg perigee
288.8116°
Mean anomaly
71.2426°
Rev number
18,769

§ Raw data

ASTROCAST-04011 55110U 23001DF  26145.19019014  .00011296  00000+0  42312-3 0  99942 55110  97.5550 237.9137 0006419 288.8116  71.2426 15.27432410187693

JSON: /api/v1/satellites/55110 · /tle

For live sub-satellite position, see the globe view (requires WebGL).

§ Visibility from observer

Set your observer location to see the next 7 days of passes ≥ 10°. The values pass through the URL so the page stays shareable.

No JS? Fill the form by hand. The geolocation button needs JavaScript.